Location: Petruro
(41.0333°N, 14.7833°E)
Time: 04:30:13
(UTC+00:00)

NOSS 2-2 (D) - Visible Passes

Search period start: 17 October 2021 00:00
Search period end: 27 October 2021 00:00
Orbit: 449 x 1757 km, 63.3° (Epoch: 15 October)

Date Brightness Start Highest point End Pass type
(mag) Time Alt. Az. Time Alt. Az. Time Alt. Az.
17 Oct 6.6 02:42:04 10° N 02:45:03 15° NE 02:48:33 10° ENE visible
17 Oct 4.9 04:30:49 10° NNW 04:36:19 71° NE 04:44:05 10° SE visible
18 Oct 5.5 03:45:29 10° NNW 03:50:38 45° NE 03:57:43 10° ESE visible
19 Oct 6.1 03:00:18 10° NNW 03:04:54 29° NE 03:10:53 10° ESE visible
20 Oct 6.5 02:16:13 13° N 02:19:01 19° NE 02:23:30 10° E visible
20 Oct 4.6 04:04:30 10° NW 04:10:07 88° ENE 04:18:02 10° SSE visible
21 Oct 6.8 01:32:21 12° NNE 01:32:59 12° NE 01:35:19 10° ENE visible
21 Oct 5.1 03:19:46 14° NNW 03:24:27 57° NE 03:31:56 10° SE visible
22 Oct 5.7 02:36:00 23° N 02:38:44 36° NE 02:45:20 10° ESE visible
22 Oct 5.0 04:23:58 10° NW 04:29:34 46° WSW 04:37:12 10° S visible
23 Oct 6.2 01:52:20 23° NE 01:52:56 23° NE 01:58:15 10° E visible
23 Oct 4.5 03:39:44 20° NW 03:43:54 74° WSW 03:51:52 10° SSE visible
24 Oct 7.0 01:08:46 14° ENE 01:08:46 14° ENE 01:10:33 10° ENE visible
24 Oct 4.7 02:56:11 43° NNW 02:58:14 72° NE 03:06:00 10° SE visible
24 Oct 5.9 04:44:10 10° WNW 04:48:57 23° WSW 04:54:53 10° SSW visible
25 Oct 5.3 02:12:43 45° NE 02:12:43 45° NE 02:19:39 10° ESE visible
25 Oct 5.3 04:00:08 23° WNW 04:03:20 36° WSW 04:10:34 10° S visible
25 Oct 4.5 17:53:31 10° SSW 17:55:13 25° S 17:55:13 25° S visible
26 Oct 6.5 01:29:21 23° E 01:29:21 23° E 01:32:50 10° ESE visible
26 Oct 4.6 03:16:47 54° W 03:17:41 58° WSW 03:25:32 10° SSE visible
26 Oct 4.3 17:08:48 10° SSE 17:11:28 21° ESE 17:11:39 21° ESE visible
